Probability
0 0 0 0 0 0 0 0 0 0 0 0 0 0 0 0 0 0 0 0 0 0 0 0 0 0 0 0 0 0 0 0 0 0 0 0 0 0 0 0 0 0 0 0 0 0 0 0 0
0 0 0 0 0 0 0 0 0 0 0 0 0 0 0 0 0 0 0 0 0 0 0 0 0 0 0 0 0 1 1 0 0 0 0 0 0 0 0 0 0 0 0 0 0 0 0 0 0
0 0 0 0 0 0 0 0 0 0 0 0 0 0 0 0 0 0 0 0 0 0 0 0 0 0 0 1 1 1 1 1 0 0 0 0 0 0 0 0 0 0 0 0 0 0 0 0 0
0 0 0 0 0 0 0 0 0 0 0 0 0 0 0 0 0 0 0 0 0 0 0 0 0 0 0 0 0 1 1 1 0 0 0 0 1 0 0 0 0 0 0 0 0 0 0 0 0
0 0 0 0 0 0 0 0 0 0 0 0 0 0 0 0 0 0 0 0 0 0 0 0 0 0 0 0 0 0 0 0 0 0 0 0 0 0 0 0 0 0 0 0 0 0 0 0 0
0 0 0 0 0 0 0 0 0 0 0 0 0 0 0 0 0 0 0 0 0 0 0 0 0 0 0 0 0 0 0 0 0 0 0 0 0 0 0 0 0 0 0 0 0 0 0 0 0
0 0 0 0 0 0 0 0 0 0 0 0 0 0 0 0 0 0 0 0 0 0 0 0 0 0 0 0 0 0 0 0 0 0 0 0 0 0 0 0 0 0 0 0 0 0 0 0 0
0 0 0 0 0 0 0 0 0 0 0 0 0 0 0 0 0 0 0 0 0 0 0 0 0 0 0 0 0 0 0 0 0 0 0 0 0 0 0 0 0 0 0 0 0 0 0 0 0
0 0 0 0 0 0 0 0 0 0 0 1 0 0 0 0 0 0 0 0 0 0 0 0 0 0 0 0 0 0 0 0 0 0 0 0 0 0 0 0 0 0 0 0 0 0 0 0 0
0 0 0 0 0 0 0 0 0 0 0 1 0 0 0 0 0 0 0 0 0 0 0 0 0 0 0 0 0 0 0 0 0 0 0 0 0 0 0 0 0 0 0 0 0 0 0 0 0
0 0 0 0 0 0 0 0 0 0 0 1 0 0 0 0 0 0 0 0 0 0 0 0 0 0 0 0 0 0 0 0 0 0 0 0 0 0 0 0 0 0 0 0 0 0 0 0 0
0 0 0 0 0 0 0 0 0 0 0 0 0 0 0 0 0 0 0 0 0 0 0 0 0 0 0 0 0 0 0 0 0 0 0 0 0 0 0 0 0 0 0 0 0 0 0 0 0
0 0 0 0 0 0 0 0 0 0 0 0 0 0 0 0 0 0 0 0 0 0 0 0 0 0 0 0 0 0 0 0 0 0 0 0 0 0 0 0 0 0 0 0 0 0 0 0 0
0 0 0 0 0 0 0 0 0 0 0 0 0 0 0 0 0 0 0 0 0 0 0 0 0 0 0 0 0 0 0 0 0 0 0 0 0 0 0 0 0 0 0 0 0 0 0 0 0
0 0 0 0 0 0 0 0 0 0 0 0 0 0 0 0 0 0 0 0 0 0 0 0 0 0 0 0 0 0 0 0 0 0 0 0 0 0 0 0 0 0 0 0 0 0 0 0 0
0 0 0 0 0 0 0 0 0 0 0 0 0 0 0 0 0 0 0 0 0 0 0 0 0 0 0 0 0 0 0 0 0 0 0 0 0 0 0 0 0 0 0 0 0 0 0 0 0
0 0 0 0 0 0 0 0 0 0 0 0 0 0 0 0 0 0 0 0 0 0 0 0 0 0 0 0 0 0 0 0 0 0 0 0 0 0 0 0 0 0 0 0 0 0 0 0 0
0 0 0 0 0 0 0 0 0 0 0 0 0 0 0 0 0 0 0 0 0 0 0 0 0 0 0 0 0 0 0 0 0 0 0 0 0 0 0 0 0 0 0 0 0 0 0 0 0
0 0 0 0 0 0 0 0 0 0 0 0 0 0 0 0 0 0 0 0 0 0 0 0 0 0 0 0 0 0 0 0 0 0 0 0 0 0 0 0 0 0 0 0 0 0 0 0 0
0 0 0 0 0 0 0 0 0 0 0 0 0 0 0 0 0 0 0 0 0 0 0 0 0 0 0 0 0 0 0 0 0 0 0 0 0 0 0 0 0 0 0 0 0 0 0 0 0
0 0 0 0 0 0 0 0 0 0 0 0 0 0 0 0 0 0 0 0 0 0 0 0 0 0 0 0 0 0 0 0 0 0 0 0 0 0 0 0 0 0 0 0 0 0 0 0 0
0 0 0 0 0 0 0 0 0 0 0 0 0 0 0 0 0 0 0 0 0 0 0 0 0 0 0 0 0 0 0 0 0 0 0 0 0 0 0 0 0 0 0 0 0 0 0 0 0
0 0 0 0 0 0 0 0 0 0 0 0 0 0 0 0 0 0 0 0 0 0 0 0 0 0 0 0 0 0 0 0 0 0 0 0 0 0 0 0 0 0 0 0 0 0 0 0 0
0 0 0 0 0 0 0 0 0 0 0 0 0 0 0 0 0 0 0 0 0 0 0 0 0 0 0 0 0 0 0 0 0 0 0 0 0 0 0 0 0 0 0 0 0 0 0 0 0
0 0 0 0 0 0 0 0 0 0 0 0 0 0 0 1 0 0 0 0 0 0 0 0 0 0 0 0 0 0 0 0 0 0 0 0 0 0 0 0 0 0 0 0 0 0 0 0 0
0 0 0 0 0 0 0 0 0 0 0 0 0 0 1 1 0 0 0 0 0 0 0 0 0 0 0 0 0 0 0 0 0 0 0 0 0 0 0 0 0 0 0 0 0 0 0 0 0
0 0 0 0 0 0 0 0 0 0 0 0 0 0 1 0 0 0 0 0 0 0 0 0 0 0 0 0 0 0 0 0 0 0 0 0 0 0 0 0 0 0 0 0 0 0 0 0 0
0 0 0 0 0 0 0 0 0 0 0 0 0 0 0 0 0 0 0 0 0 0 0 0 0 0 0 0 0 0 0 0 0 0 0 0 0 0 0 0 0 0 0 0 0 0 0 0 0
0 0 0 0 0 0 0 0 0 0 0 0 0 0 0 0 0 0 0 0 0 0 0 0 0 0 0 0 0 0 0 0 0 0 0 0 0 0 0 0 0 0 0 0 0 0 0 0 0
0 0 0 0 0 0 0 0 0 0 0 0 0 0 0 0 0 0 0 0 0 0 0 0 0 0 0 0 0 0 0 0 0 0 0 0 0 0 0 0 0 0 0 0 0 0 0 0 0
Wind_Speed
4 2 2 3 4 4 2 2 1 2 4 5 8 9 8 6 4 5 2 6 8 6 5 7 10 10 10 11 11 11 11 11 10 10 10 10 10 10 10 10 10 9 9 8 8 8 7 7 7
2 1 3 3 4 3 1 0 3 3 6 7 8 7 7 6 5 6 4 7 8 7 5 7 10 11 11 11 11 11 11 11 11 10 10 9 9 9 9 9 9 9 8 7 7 6 6 6 6
2 1 3 3 2 3 3 2 3 5 6 5 6 6 5 4 4 4 5 8 8 6 5 7 11 11 11 11 11 11 11 10 10 9 9 9 9 9 8 8 8 7 7 6 6 5 5 5 5
2 3 4 4 2 1 4 4 4 6 6 6 6 6 4 3 4 7 9 9 9 6 5 7 11 12 12 11 11 11 11 10 10 9 8 8 8 8 8 8 7 6 6 5 5 4 4 4 4
3 4 4 2 1 0 2 3 4 6 5 5 7 6 4 3 9 11 9 9 9 6 4 6 11 12 11 11 11 11 10 10 9 9 8 7 7 7 7 7 6 6 5 5 4 3 3 4 4
4 4 4 1 1 1 1 3 6 8 7 6 7 6 3 3 8 8 9 8 8 7 5 5 10 11 11 11 10 10 9 9 9 8 7 7 7 6 6 6 6 5 4 4 4 3 3 3 3
4 3 2 2 1 1 1 3 5 6 5 4 6 6 4 3 6 8 8 8 7 7 5 3 4 7 10 10 10 9 8 8 7 7 6 6 6 5 5 4 4 4 3 3 3 2 2 3 3
4 4 1 1 2 1 1 4 5 6 5 5 5 8 6 6 7 8 8 7 6 5 5 4 3 3 3 4 8 8 8 7 6 5 4 4 4 4 3 3 3 3 2 2 1 1 2 3 3
4 4 1 1 3 2 2 5 3 5 6 3 3 5 8 10 9 8 7 5 5 6 4 4 3 2 2 2 4 5 5 4 4 2 3 2 1 0 1 2 2 1 1 1 2 2 3 3 4
4 2 2 1 3 3 4 5 5 5 6 5 6 7 9 9 9 8 8 7 6 6 6 4 4 4 3 3 2 1 1 0 1 1 1 1 1 1 2 2 2 1 1 2 3 3 4 3 2
3 3 1 2 2 3 4 3 3 7 4 6 11 11 9 7 7 8 7 7 7 6 7 6 5 4 3 2 2 1 0 0 0 1 1 1 1 0 1 0 1 2 2 2 3 3 2 2 1
1 1 2 2 1 2 3 3 3 4 5 8 11 12 10 8 8 8 7 6 5 5 5 5 5 4 3 2 2 2 1 1 0 0 1 2 1 1 1 0 0 1 1 1 2 2 3 3 3
1 1 2 3 4 4 5 5 5 3 7 9 10 9 9 8 6 5 6 6 5 5 5 5 5 4 3 3 2 2 1 1 1 1 1 2 2 1 1 0 0 1 1 1 2 2 3 4 4
2 2 3 3 3 3 6 3 5 4 9 10 10 8 7 8 7 6 6 5 6 5 5 5 5 4 4 3 3 2 2 2 2 2 2 3 2 2 2 2 1 1 1 2 2 3 3 3 4
3 3 3 1 2 2 6 3 3 7 9 10 9 8 7 6 7 8 8 7 6 6 5 6 5 5 5 4 3 3 2 3 3 3 3 3 3 3 3 3 2 1 2 3 3 4 4 4 4
3 3 1 3 2 3 6 3 4 7 9 9 8 7 6 5 6 7 7 6 6 6 6 5 6 6 6 5 4 3 3 3 3 3 3 4 4 4 4 3 2 2 3 3 3 3 4 4 4
2 1 3 4 3 3 5 5 6 7 9 9 8 7 7 5 4 4 6 7 6 7 7 6 7 6 5 5 5 4 4 4 3 3 3 4 4 4 4 3 2 3 3 3 3 3 3 3 3
3 3 3 4 3 4 4 4 6 7 9 9 7 7 7 7 6 6 6 7 7 6 7 7 6 6 6 5 4 4 4 3 3 3 3 4 4 4 4 3 4 4 4 3 3 4 3 3 3
3 2 2 4 3 4 5 5 7 7 8 9 8 7 8 7 5 5 7 8 8 6 6 6 6 5 5 3 3 3 2 2 2 3 4 4 4 4 4 3 3 4 3 3 3 3 4 3 2
2 1 1 2 1 3 4 5 6 8 10 11 12 11 10 7 5 6 7 7 8 7 6 6 6 5 5 3 3 3 3 2 1 2 3 4 4 4 3 4 3 3 3 4 3 3 3 2 1
1 2 3 2 2 2 2 2 3 4 4 6 9 10 10 12 11 9 8 7 7 8 8 7 6 6 5 5 4 4 3 3 3 3 2 3 4 4 4 4 3 3 3 3 2 3 3 2 1
1 2 2 2 2 2 2 2 6 6 6 7 9 9 11 11 11 10 9 8 8 8 7 7 6 6 6 6 6 6 4 2 1 1 1 2 3 3 3 4 4 3 3 3 2 2 2 3 1
4 2 1 1 2 0 1 2 6 3 7 10 11 11 11 12 12 12 10 9 8 8 8 7 6 6 5 6 7 6 4 2 1 1 2 2 3 3 4 4 4 3 2 2 2 3 3 2 2
3 4 4 4 4 2 4 4 6 6 10 11 12 12 12 11 11 10 9 8 7 7 8 7 7 6 5 6 6 6 6 4 4 3 2 1 1 2 3 3 3 3 2 2 2 3 3 2 3
4 5 3 4 2 5 3 3 8 8 9 12 14 13 12 11 10 10 9 8 9 9 9 8 8 6 6 6 6 6 6 6 5 4 3 2 1 1 1 2 3 2 2 3 3 3 3 3 3
3 7 5 3 3 4 2 4 7 5 5 7 9 11 12 12 11 11 11 10 10 10 9 8 8 7 6 6 5 5 5 4 3 4 4 3 2 2 1 2 2 2 3 3 3 3 2 3 3
4 3 5 4 1 2 4 4 5 3 3 5 7 9 11 13 12 12 11 11 10 10 10 10 9 7 6 6 5 4 5 4 4 4 3 3 2 2 3 3 3 3 3 3 4 3 3 3 3
5 6 4 3 1 2 4 3 3 3 2 5 7 9 10 12 12 11 10 11 10 10 8 9 9 8 6 6 6 5 5 5 5 4 4 3 3 2 4 3 3 3 3 3 4 3 3 4 3
3 3 4 3 4 3 2 6 5 5 5 6 8 9 11 12 12 11 10 10 10 9 8 8 8 7 6 6 5 5 5 4 5 4 4 4 3 4 4 3 3 3 3 3 4 3 3 4 3
5 6 6 4 3 3 2 7 6 4 4 6 7 8 8 10 10 10 10 10 9 9 9 8 8 8 7 6 6 6 5 4 4 4 3 4 4 4 4 4 3 3 3 3 4 3 3 4 3
Wind_Direction
328 346 93 71 57 56 39 353 99 80 65 58 73 82 82 60 79 126 148 128 126 124 115 113 115 114 113 112 109 107 106 105 103 101 100 99 98 95 92 93 90 87 85 82 78 78 76 72 67
334 5 72 65 78 78 28 272 90 94 128 122 78 75 77 74 78 103 110 126 122 119 113 115 116 114 113 112 111 109 108 106 105 102 99 99 98 97 95 92 89 85 82 80 77 74 73 68 60
315 139 85 71 89 151 162 189 130 93 106 99 80 57 67 91 98 104 128 127 116 112 111 122 118 115 113 112 111 111 110 107 107 106 104 101 99 99 97 93 91 88 85 82 78 73 70 64 52
59 48 56 69 77 200 168 188 144 115 84 66 98 72 57 62 105 122 128 126 120 117 118 125 123 120 117 115 114 114 113 111 110 109 109 106 102 100 99 97 94 90 85 84 81 74 66 59 48
71 73 59 46 49 173 166 160 121 104 87 78 93 89 63 44 107 124 131 131 128 128 126 130 126 127 125 122 119 116 116 115 112 110 108 110 108 106 102 101 100 94 88 86 84 77 67 56 44
56 68 79 81 109 88 100 115 100 93 105 105 100 104 95 117 123 135 138 136 135 135 134 132 131 130 128 125 124 122 121 119 117 114 112 112 114 114 112 106 103 98 93 88 84 73 63 40 27
103 92 128 165 147 107 135 102 103 115 117 123 121 105 124 146 146 144 139 134 133 134 133 129 132 129 131 131 131 131 131 128 125 124 123 124 124 125 125 119 113 106 96 85 77 58 33 24 26
128 99 59 111 138 169 128 93 103 110 108 121 115 130 157 179 151 136 134 132 134 135 138 138 136 131 136 139 144 142 141 140 139 138 138 143 145 145 149 142 131 116 96 71 54 14 3 11 24
89 75 57 205 157 163 120 101 80 76 98 85 86 130 153 153 136 127 125 130 145 150 158 161 164 166 160 166 164 148 147 148 148 152 173 165 122 153 228 208 184 162 82 26 16 7 5 6 16
91 118 232 214 159 152 122 111 123 95 86 85 89 107 132 139 137 139 143 150 158 165 176 180 181 188 190 186 146 126 121 131 139 179 218 213 217 235 226 245 241 266 335 354 358 352 357 8 15
144 176 203 55 97 122 115 106 102 119 118 154 147 148 152 149 149 153 158 162 165 167 171 179 186 190 187 186 156 152 114 174 245 210 187 170 168 237 218 336 317 332 353 3 5 13 15 26 37
137 154 119 107 85 105 113 112 88 120 164 163 154 154 157 160 164 166 166 169 158 150 161 168 178 174 171 157 152 152 159 159 145 195 166 139 118 107 129 122 334 346 16 35 27 28 35 50 64
100 152 110 116 107 105 106 111 109 112 133 142 144 148 156 161 160 170 166 159 146 143 148 156 155 149 142 126 135 133 141 115 94 74 131 137 130 131 119 102 65 44 62 78 73 59 56 55 64
142 111 104 126 124 114 114 106 104 147 144 146 150 157 163 164 165 164 161 154 149 147 148 144 134 132 121 114 113 118 110 91 72 60 78 110 116 114 107 85 72 65 80 84 87 80 70 60 65
106 78 23 358 146 148 108 74 154 163 151 152 159 163 163 170 163 166 167 160 154 147 137 134 127 116 112 112 113 104 92 78 62 53 65 86 98 102 101 89 73 73 88 88 79 70 66 69 66
65 63 325 275 185 169 125 187 206 165 150 156 161 162 157 171 171 171 166 157 152 136 130 133 124 111 108 107 102 94 80 73 62 57 64 76 85 88 83 76 68 77 78 79 81 72 73 63 62
31 177 235 265 213 168 146 196 205 175 161 163 165 169 167 173 175 168 166 156 147 136 130 122 118 114 108 101 92 85 79 70 62 57 57 69 79 83 85 79 72 77 73 68 81 71 82 78 70
224 215 231 229 222 164 170 205 195 183 169 170 170 174 170 170 182 168 157 147 137 133 131 127 121 115 107 96 86 72 61 55 52 55 57 66 73 81 83 78 74 77 77 66 73 79 68 78 85
212 224 256 242 212 169 192 203 196 186 174 175 180 181 176 180 181 155 151 142 132 133 134 133 127 126 117 108 103 95 78 55 47 50 62 67 70 75 81 83 74 77 85 93 95 92 74 63 84
212 216 289 300 239 166 193 220 203 192 190 186 184 184 180 173 164 157 152 149 146 147 145 138 138 135 130 130 131 129 122 95 73 47 48 55 66 71 91 96 92 89 88 76 82 97 94 61 63
231 200 219 213 4 25 112 308 246 226 200 191 190 188 179 176 172 168 163 162 155 153 156 152 147 138 135 129 111 91 67 48 40 40 34 32 59 69 83 99 100 96 99 101 99 112 116 114 27
240 252 200 163 117 265 160 248 263 216 207 198 193 189 187 183 175 172 171 171 169 165 157 147 146 139 138 131 127 129 128 134 172 148 76 45 52 64 75 91 96 97 101 108 113 112 119 125 111
201 220 109 153 141 320 261 203 271 191 206 212 201 195 192 187 179 175 175 175 171 159 149 150 145 140 141 138 137 132 135 150 141 97 86 58 39 49 67 82 89 91 93 103 99 98 103 118 133
144 56 38 44 70 294 234 192 264 215 209 205 201 198 194 186 182 178 174 165 157 149 146 150 147 147 146 141 141 143 149 146 134 126 117 81 45 35 52 77 85 91 92 96 100 99 98 98 104
89 83 36 3 5 257 246 203 247 233 210 199 195 195 189 181 177 175 171 164 158 153 151 154 152 153 153 147 151 156 157 156 157 160 158 145 113 73 62 80 86 86 90 94 93 90 88 91 97
163 139 155 194 227 277 293 232 261 259 206 187 184 180 175 176 177 177 176 169 163 159 156 157 159 160 158 156 164 164 160 156 159 163 161 163 165 172 137 100 93 90 89 93 90 84 84 89 91
146 171 170 147 252 268 281 285 312 7 96 139 154 166 176 179 179 178 173 168 164 165 164 164 164 167 166 165 163 167 165 158 159 159 155 159 166 153 124 112 100 93 93 97 95 83 78 86 83
154 155 108 123 169 272 293 279 254 257 201 167 171 177 180 178 178 176 171 170 167 171 166 166 167 172 171 166 169 168 167 164 158 149 154 164 164 138 129 121 115 105 97 97 92 87 83 86 78
143 141 129 140 163 166 269 277 241 219 206 188 189 188 183 178 178 175 173 173 169 168 166 168 166 163 163 165 163 155 162 160 149 150 157 159 154 149 149 150 134 118 107 103 99 97 94 91 76
164 175 154 156 210 176 187 268 274 226 202 188 186 185 180 180 178 173 172 169 166 171 171 170 168 166 168 163 155 155 158 151 148 153 156 155 155 155 156 150 138 136 129 119 117 114 106 108 104